SL-16 DEB, 22415

Orbit data source: Space-Track

SL-16 DEB, 22415 is space debris in LEO originally from a launch on Fri, 25 Dec 1992 UTC launched from the Tyuratam Missile And Space Complex (TTMTR). Debris objects in space refer to the collection of defunct objects orbiting the Earth. Examples of debris include non-operational satellites, rocket bodies, and fragments generated from explosions, collisions, or faulty payload assembly.

Loading next visibility...
Identifier
22415, 1992-093DG
Orbit
LEO
Country
Flag of CISCIS
Related business
Manufacturer
Unknown
Mission
Spacecraft
Bus & Motor
Unknown
Mass
Unknown
Launch date (UTC)
1992-12-25 (33 years ago)
Launch vehicle
Unknown
Launch site
Tyuratam Missile And Space Complex (TTMTR)
Object type
Payload
Rocket body
Debris
Shape & HBR
Unknown shape, 0.1 m
Radar Cross Section
Small (<0.1 m²)

Expand to show TLE details & history
Last TLE update: 14 hours ago

TLE from 14 hours ago
0 SL-16 DEB
1 22415U 92093DG  25352.12962106  .00000446  00000-0  28099-3 0  9996
2 22415  71.1148 141.5834 0122896 227.3279 131.7436 14.05878206683568
Epoch: 2025-12-18T03:06Z
TLE epoch observation values (Epoch: 2025-12-18T03:06:39.259Z)
Latitude
0.00001°
Longitude
7.93027°
Altitude
935.855 km
Speed
7.354 km/s
True Right ascension
09h 26m 20s
True Declination
0° 00' 00"
Sunlit
Object was in full shadow at epoch
Visualization orbit readout
Latitude
Unknown
Longitude
Unknown
Altitude
Unknown
Speed
Unknown
Apparent Right ascension
Unknown
Apparent Declination
Unknown
Sunlit
N/A
Visualization observer readout
Local Sidereal Time
16:22:48
Azimuth
Unknown
Elevation
Unknown
Doppler factor
Unknown
Orbital elements
Apogee altitude
960.527 km
Perigee altitude
782.339 km
Semi-major axis
7,249.57 km
Eccentricity
0.01229
Inclination
71.1148°
RAAN
141.5834°
Arg. of periapsis
227.3279°
True anomaly
132.78367°
Mean anomaly
131.7436°
Eccentric anomaly
132.2647°
Mean motion
3.51621 °/min
Orbital period
102.38 mins
BSTAR
0.00028099
Loading maneuver chart data...
Computing Atmospheric mass density...
Loading historical data...
Loading historical data...
Loading historical data...
Loading historical data...
Loading historical data...
Loading historical data...
Loading historical data...

Documentation

Showing up to 5 results
|